COSMOS 1275 DEB, 18505

Orbit data source: Space-Track

COSMOS 1275 DEB, 18505 is space debris in LEO originally from a launch on Thu, 04 Jun 1981 UTC launched from the Plesetsk Missile And Space Complex (PKMTR). Debris objects in space refer to the collection of defunct objects orbiting the Earth. Examples of debris include non-operational satellites, rocket bodies, and fragments generated from explosions, collisions, or faulty payload assembly.

Loading next visibility...
Identifier
18505, 1981-053LS
Orbit
LEO
Country
Flag of CISCIS
Related business
Manufacturer
Unknown
Mission
Spacecraft
Bus & Motor
Unknown
Mass
Unknown
Launch date (UTC)
1981-06-04 (45 years ago)
Launch vehicle
Unknown
Launch site
Plesetsk Missile And Space Complex (PKMTR)
Object type
Payload
Rocket body
Debris
Shape & HBR
Unknown shape, 0.1 m
Radar Cross Section
Small (<0.1 m²)

Expand to show TLE details & history
Last TLE update: 4 days ago

TLE from 4 days ago
0 COSMOS 1275 DEB
1 18505U 81053LS  25346.06107148  .00002905  00000-0  19225-2 0  9990
2 18505  83.2876 217.7275 0067279 148.5277 211.9947 14.00116787 47112
Epoch: 2025-12-12T01:27Z
TLE epoch observation values (Epoch: 2025-12-12T01:27:56.575Z)
Latitude
-0.00004°
Longitude
114.73366°
Altitude
937.925 km
Speed
7.362 km/s
True Right ascension
14h 30m 54s
True Declination
0° 00' 00"
Sunlit
Object was in daylight at epoch
Visualization orbit readout
Latitude
Unknown
Longitude
Unknown
Altitude
Unknown
Speed
Unknown
Apparent Right ascension
Unknown
Apparent Declination
Unknown
Sunlit
N/A
Visualization observer readout
Local Sidereal Time
12:36:31
Azimuth
Unknown
Elevation
Unknown
Doppler factor
Unknown
Orbital elements
Apogee altitude
939.394 km
Perigee altitude
841.589 km
Semi-major axis
7,268.629 km
Eccentricity
0.00673
Inclination
83.2876°
RAAN
217.7275°
Arg. of periapsis
148.5277°
True anomaly
211.58911°
Mean anomaly
211.9947°
Eccentric anomaly
211.79162°
Mean motion
3.50239 °/min
Orbital period
102.79 mins
BSTAR
0.0019225
Loading maneuver chart data...
Computing Atmospheric mass density...
Loading historical data...
Loading historical data...
Loading historical data...
Loading historical data...
Loading historical data...
Loading historical data...
Loading historical data...

Documentation

Showing up to 5 results
|